Location: Ozero Tas-Kop�
(51.0079°N, 71.6451°E)
Time: 20:31:06
(UTC+00:00)

Daily predictions for brighter satellites

Satellite Brightness Start Highest point End
(mag) Time Altitude Azimuth Time Altitude Azimuth Time Altitude Azimuth
ATLAS 3B R/B 4.5 15:20:45 10° WNW 15:26:40 29° WSW 15:32:46 10° S
USA 229 DEB 4.4 15:19:52 10° NW 15:26:53 54° NE 15:34:21 10° ESE
USA 229 4.4 15:19:58 10° NW 15:26:59 54° NE 15:34:26 10° ESE
CZ-4C R/B 4.3 15:22:12 10° NW 15:27:25 28° N 15:33:30 10° ENE
Cosmos 1371 Rocket 4.1 15:24:44 10° NNW 15:30:09 78° ENE 15:35:31 10° SSE
BREEZE-M DEB (TANK) 4.2 15:28:43 10° W 15:31:41 37° SSW 15:39:15 10° SE
Cosmos 1680 Rocket 3.6 15:26:56 10° S 15:32:06 60° ESE 15:37:16 10° NNE
Cosmos 2112 Rocket 4.2 15:28:44 10° S 15:33:52 54° ESE 15:39:00 10° NNE
GP-B 3.6 15:31:35 10° NNE 15:35:49 42° E 15:40:02 10° SSE
Cosmos 2237 4.4 15:31:48 10° NNW 15:37:33 81° WSW 15:43:16 10° SSE
Cosmos 1428 Rocket 4.5 15:31:42 10° S 15:37:44 65° E 15:43:48 10° NNE
MetOp-B 4.3 15:33:44 10° SSE 15:39:01 63° ENE 15:44:20 10° N
IGS 5A 3.5 15:35:34 10° SSE 15:39:43 88° ENE 15:43:54 10° NNW
Cosmos 1151 Rocket 3.1 15:35:40 10° N 15:40:03 69° ENE 15:44:25 10° SSE
USA 186 4.4 15:38:54 10° SW 15:40:19 13° W 15:41:41 10° WNW
ATLAS 2AS CENTAUR R/B 4.2 15:33:26 10° W 15:40:57 46° NNW 15:48:11 10° NE
CARTOSAT-1 4.4 15:38:09 10° SE 15:42:04 35° ENE 15:46:01 10° N
COSMOS 2428 3.6 15:36:59 10° NNW 15:42:20 38° NE 15:47:37 10° ESE
NOSS 2-1 (C) 3.0 15:40:28 10° SSW 15:43:38 48° SE 15:46:56 10° NE
COSMOS 2455 3.7 15:38:43 10° SSE 15:43:39 27° ESE 15:48:36 10° NE
Okean 3 Rocket 3.9 15:41:23 10° S 15:45:45 51° E 15:50:10 10° NNE
GEOS 3 Rocket 3.6 15:41:44 10° NE 15:46:58 70° SE 15:52:04 10° SW
NOSS 3-1 (A) 4.3 15:40:28 10° NW 15:47:33 65° NE 15:55:57 10° ESE
Cosmos 1271 Rocket 3.8 15:45:25 10° NNW 15:49:17 48° W 15:53:08 10° S
Meteor 2-3 Rocket 3.9 15:45:29 10° SSW 15:51:12 81° WNW 15:57:01 10° N
NOSS 2-1 (D) 2.8 15:48:11 10° SSW 15:51:25 59° SE 15:54:48 10° NE
Cosmos 2082 Rocket 4.4 15:48:22 10° WSW 15:53:20 31° NW 15:58:22 10° NNE
Cosmos 2360 Rocket 2.3 15:47:41 10° NNW 15:53:21 79° WSW 15:58:59 10° SSE
Cosmos 1515 Rocket 4.0 15:52:08 10° N 15:56:25 45° ENE 16:00:19 12° SSE
ERS-2 2.1 15:53:16 10° NNE 15:56:57 90° WSW 16:00:34 10° SSW
Gblst 52 Del rocket 4.4 15:51:52 10° WNW 15:57:40 77° SSW 16:04:09 11° ESE
Ariane Rocket 3.9 15:53:38 10° S 15:58:32 48° W 16:03:26 10° NNW
BREEZE-M DEB (TANK) 3.8 15:57:08 10° W 15:59:53 26° SSW 16:05:05 11° SE
Cosmos 292 Rocket 3.8 15:55:08 10° NNW 15:59:56 80° ENE 16:04:28 12° SSE
Terra 2.9 15:57:50 11° ESE 16:01:41 31° ENE 16:05:50 10° N
Cosmos 1553 Rocket 4.0 15:55:56 10° N 16:02:03 75° ENE 16:08:12 10° SSE
SPOT 3 Rocket 3.7 15:59:00 10° S 16:04:13 76° WSW 16:09:28 10° NNW
Meteor 2-6 Rocket 4.1 15:58:53 10° N 16:04:19 78° ENE 16:09:43 10° SSE
Cosmos 1174 3.6 16:01:27 10° NW 16:04:23 52° SW 16:06:55 13° SSE
Cosmos 1328 Rocket 3.6 16:01:17 10° N 16:05:46 87° W 16:10:10 10° S
COSMOS 2487 3.7 16:06:07 15° SE 16:07:51 22° ESE 16:10:32 10° NE
Cosmos 1624 Rocket 4.4 16:03:03 10° NNW 16:08:12 60° WSW 16:13:21 10° S
Cosmos 2084 Rocket 4.3 16:05:13 10° NW 16:09:11 42° NE 16:12:56 12° ESE
Cosmos 1766 Rocket 3.6 16:08:36 10° S 16:12:59 85° W 16:17:22 10° N
Cosmos 2285 Rocket 4.3 16:07:07 10° NNW 16:13:19 55° ENE 16:18:29 15° SE
Cosmos 1420 Rocket 4.1 16:08:05 10° NNW 16:13:27 79° WSW 16:18:21 12° SSE
Meteor 2-21 4.5 16:08:58 10° S 16:15:05 71° E 16:21:12 10° NNE
Resurs 01 Rocket 2.8 16:14:10 10° S 16:18:24 42° W 16:22:40 10° NNW
Cosmos 2084 4.1 16:15:47 10° WSW 16:19:49 58° NW 16:24:00 10° NE
USA 234 4.0 16:14:27 10° ENE 16:20:47 53° N 16:27:07 10° WNW
ERS-1 Rocket 3.1 16:20:14 16° SSE 16:24:15 63° ENE 16:29:15 10° N
Cosmos 1833 4.2 16:19:38 10° SSW 16:25:24 76° ESE 16:31:11 10° NNE
Cosmos 2297 Rocket 4.1 16:26:08 11° ESE 16:27:01 11° E 16:28:44 10° ENE
Cosmos 2333 Rocket 2.2 16:22:23 10° NNW 16:28:05 84° WSW 16:32:32 17° SSE
Cosmos 2322 Rocket 3.9 16:25:19 10° NW 16:30:01 28° WSW 16:34:41 10° SSW
Cosmos 1812 3.5 16:26:25 10° NNW 16:30:10 50° W 16:33:54 10° S
Cosmos 2237 Rocket 3.3 16:25:31 10° NNW 16:30:44 35° NE 16:35:09 14° ESE
Cosmos 2322 3.8 16:25:30 10° NNW 16:31:16 84° WSW 16:35:41 18° SSE
Cosmos 2228 Rocket 3.6 16:27:30 10° N 16:31:46 44° ENE 16:34:26 21° SE
BREEZE-M DEB (TANK) 2.7 16:25:51 10° W 16:33:11 63° SSW 16:35:01 22° ESE
Cosmos 1862 3.3 16:30:05 10° SSW 16:34:03 81° WNW 16:38:03 10° N
S3M 4.1 16:30:04 10° N 16:36:31 89° E 16:42:07 14° S
SPOT 5 2.6 16:34:17 19° SSE 16:37:24 79° ENE 16:41:59 10° NNW
Cosmos 1452 Rocket 3.5 16:34:30 10° NNW 16:39:47 89° WSW 16:43:31 20° SSE
Cosmos 2227 Rocket 4.1 16:39:28 11° E 16:40:01 11° E 16:41:14 10° E
Cosmos 1805 Rocket 4.4 16:40:16 22° SE 16:42:20 34° E 16:46:19 10° NNE
ARIANE 5 R/B 2.7 16:39:13 17° S 16:42:34 79° WSW 16:47:00 10° NNW
Cosmos 2219 Rocket 2.2 16:37:12 10° NNW 16:42:49 79° WSW 16:46:45 20° SSE
SL-27 R/B 3.7 16:39:56 10° SW 16:43:24 45° WNW 16:46:54 10° NNE
Meteor 2-16 Rocket 4.4 16:38:01 10° S 16:44:04 75° E 16:50:10 10° NNE
NOSS 2-1 (E) 4.0 16:46:35 10° WSW 16:49:45 47° NW 16:53:17 10° NE
ATLAS 5 CENTAUR R/B 2.3 16:44:27 10° NW 16:49:53 79° SW 16:54:07 22° SE
Meteor 1-27 Rocket 3.7 16:44:14 10° NNW 16:49:58 86° ENE 16:54:07 20° SSE
Cosmos 1500 Rocket 3.5 16:48:57 18° S 16:52:08 71° E 16:56:36 10° NNE
BREEZE-M DEB (TANK) 1.7 16:50:33 10° W 16:52:19 49° SSW 16:52:19 49° SSW
Cosmos 1655 Rocket 4.0 16:49:19 10° S 16:55:43 86° E 17:02:10 10° N
Cosmos 1331 Rocket 4.1 16:50:54 10° NNW 16:56:07 65° ENE 16:59:06 25° SE
USA 102 3.7 16:14:22 12° E 16:56:52 54° NE 17:45:30 10° NW
USA 102 3.2 16:56:24 50° ENE 16:56:53 54° NE 17:04:40 10° NNW
Cosmos 1110 Rocket 4.1 16:52:00 10° NNW 16:57:21 73° ENE 17:00:27 25° SE
Spot 2 Rocket 4.1 16:53:40 14° S 16:57:55 52° W 17:02:55 10° NNW
SL-16 R/B 3.8 16:58:05 10° NNW 17:02:51 27° NE 17:07:23 11° E
Sich 1 3.5 17:02:40 30° SE 17:04:16 42° E 17:08:21 10° NNE
Cosmos 1408 Rocket 4.4 17:03:36 10° SSW 17:07:48 48° WNW 17:12:00 10° N
Cosmos 1515 3.9 17:07:55 10° N 17:11:40 55° ENE 17:12:49 37° SE
Cosmos 494 Rocket 4.0 17:11:25 23° S 17:14:33 60° ESE 17:19:37 10° NNE
Cosmos 1743 Rocket 3.7 17:11:26 18° SSW 17:14:42 73° WNW 17:19:08 10° N
IRIDIUM 104 4.3 17:09:51 10° N 17:15:06 81° E 17:17:59 27° S
CZ-4C R/B 3.7 17:11:17 10° NW 17:17:36 44° NNE 17:25:06 10° E
USA 229 DEB 4.3 17:10:57 10° NW 17:18:03 56° SW 17:22:45 24° SSE
USA 229 4.2 17:11:02 10° NW 17:18:09 56° SW 17:22:51 24° SSE
Lacrosse 5 2.2 17:15:55 19° SSW 17:19:06 40° SE 17:23:49 10° ENE
Cosmos 1633 Rocket 4.0 17:19:40 29° ESE 17:20:33 31° E 17:24:25 10° NNE
IRIDIUM 114 4.3 17:18:59 10° N 17:24:15 85° W 17:27:06 28° S
APEX 4.5 17:21:26 20° S 17:25:36 62° ESE 17:32:20 10° NE
COSMOS 2428 3.3 17:21:18 10° NW 17:26:45 48° WSW 17:29:50 24° S
USA 267 4.5 17:22:17 10° ENE 17:26:16 20° ESE 17:26:16 20° ESE
CZ-3B R/B 2.6 17:16:05 10° WNW 17:26:56 75° SSW 17:28:34 35° SE
COSMOS 2455 3.1 17:23:07 10° SW 17:29:07 71° NW 17:35:10 10° NE
Meteor 1-25 Rocket 4.2 17:26:49 28° S 17:29:45 68° E 17:35:17 10° NNE
Cosmos 1666 Rocket 3.9 17:29:47 37° SE 17:30:58 48° E 17:35:17 10° NNE
Cosmos 468 4.5 17:26:38 15° SSW 17:31:04 85° WNW 17:36:21 10° NNE
Cosmos 1666 4.3 17:31:22 21° E 17:31:23 21° E 17:34:17 10° NE
Meteor 2-4 Rocket 4.3 17:26:06 10° N 17:31:50 47° ENE 17:34:34 28° SE
IRIDIUM 103 4.4 17:28:10 10° N 17:33:24 73° W 17:36:14 27° S
Cosmos 2360 Rocket 4.5 17:33:28 10° WNW 17:36:26 15° W 17:39:24 10° SW
Cosmos 1602 3.6 17:37:30 50° S 17:38:24 76° E 17:42:16 10° NNE
Meteor 1-18 Rocket 4.3 17:33:28 10° N 17:39:18 73° ENE 17:41:53 34° SSE
Terra 2.7 17:36:43 22° SSW 17:39:19 41° W 17:43:51 10° NNW
Cosmos 972 Rocket 4.4 17:34:47 10° SW 17:39:51 59° WNW 17:44:43 10° NNE
COBE Rocket 3.9 17:38:23 38° SE 17:40:04 64° ENE 17:44:49 10° N
Cosmos 1340 Rocket 4.5 17:41:57 19° E 17:41:57 19° E 17:44:43 10° NE
COSMOS 2487 4.2 17:39:28 10° WSW 17:42:30 30° WNW 17:45:35 10° N
Cosmos 2219 3.9 17:42:38 32° SE 17:43:56 36° ESE 17:49:09 10° NE
Cosmos 1048 Rocket 4.3 17:39:27 12° SW 17:44:07 66° WNW 17:49:15 10° NNE
NOSS 2-2 (D) 4.3 17:39:21 10° NW 17:44:26 82° SW 17:47:46 31° SE
Cosmos 2084 Rocket 4.2 17:44:44 10° WNW 17:48:38 38° SW 17:49:26 35° SSW
Meteor 1-19 Rocket 4.1 17:45:53 10° NNW 17:51:28 79° W 17:53:47 36° S
TSX-5 4.0 17:51:09 47° S 17:52:16 68° ESE 17:57:22 10° NE
Cosmos 1862 Rocket 3.5 17:48:30 10° N 17:52:51 73° ENE 17:53:54 50° SSE
Cosmos 1980 3.7 17:48:01 10° NNW 17:53:41 70° WSW 17:55:56 37° S
Cosmos 1302 Rocket 3.9 17:49:45 10° NNW 17:55:00 84° WSW 17:56:53 41° SSE
Spot 4 3.9 17:54:47 41° SE 17:56:23 70° ENE 18:01:14 10° N
Cosmos 1707 Rocket 4.0 17:56:46 10° NNW 18:01:04 55° W 18:02:25 38° SSW
H-2A R/B 4.0 17:58:09 10° N 18:02:18 57° WNW 18:04:10 30° SW
USA 234 3.5 17:56:55 10° E 18:03:23 67° NNE 18:09:54 10° WNW
Okean 1 3.7 18:01:18 10° NNW 18:05:14 53° W 18:06:04 44° SW
Cosmos 1703 Rocket 4.3 18:04:48 10° N 18:08:57 40° ENE 18:09:53 35° ESE
Cosmos 2297 Rocket 2.2 18:07:54 39° S 18:09:56 65° ESE 18:15:34 10° NE
Cosmos 1269 Rocket 4.0 18:09:24 43° S 18:11:03 67° ESE 18:16:19 10° NNE
Cosmos 2333 Rocket 4.3 18:08:13 10° WNW 18:11:29 16° W 18:14:32 11° SW
Cosmos 2237 Rocket 2.6 18:09:32 10° NW 18:15:03 53° WSW 18:16:57 37° SSW
Cosmos 1500 3.2 18:14:45 60° SW 18:15:20 74° W 18:19:12 10° N
Okean 1-7 3.5 18:14:11 10° N 18:18:20 47° ENE 18:19:03 43° ESE
Cosmos 1378 3.6 18:16:32 10° N 18:20:09 46° ENE 18:20:18 46° E
Cosmos 2227 Rocket 2.2 18:21:15 43° S 18:22:54 62° ESE 18:28:29 10° NE
Cosmos 1745 Rocket 4.0 18:21:16 39° SSE 18:23:43 72° E 18:30:03 10° NNE
Cosmos 2219 Rocket 4.3 18:22:55 10° WNW 18:25:51 15° W 18:28:28 11° SW
Meteor 1-14 Rocket 4.2 18:26:34 41° SSW 18:28:40 89° WNW 18:34:26 10° NNE
Cosmos 2263 Rocket 4.0 18:28:26 15° ESE 18:28:56 16° E 18:32:10 10° ENE
ALOS 2 2.5 18:30:58 61° SSE 18:31:43 87° ENE 18:36:09 10° NNW
ATLAS 5 CENTAUR R/B 4.0 18:30:01 10° WNW 18:34:05 20° WSW 18:35:38 18° SW
Nadezhda 1 Rocket 4.1 18:28:31 10° NNW 18:34:56 77° W 18:37:27 39° S
Cosmos 1461 4.1 18:38:21 31° E 18:38:21 31° E 18:41:32 10° NE
SL-16 R/B 2.1 18:41:54 10° NNW 18:47:36 77° WSW 18:49:14 48° SSE
Thor Agena Rocket 4.3 18:45:27 10° NNE 18:50:04 34° E 18:50:50 33° ESE
Cosmos 1536 3.2 18:53:39 51° E 18:53:40 51° E 18:57:38 10° NNE
Cosmos 44 3.3 18:49:33 10° NW 18:54:54 87° NE 18:56:18 49° SE
Okean 3 3.5 18:51:34 10° N 18:55:50 67° ENE 18:56:16 61° ESE
Cosmos 1869 Rocket 3.9 18:55:39 48° ESE 18:56:04 50° E 19:00:24 10° NNE
Timation 1 Rocket 4.2 18:55:16 41° SSW 18:57:31 84° ESE 19:03:34 10° NNE
Cosmos 1633 Rocket 4.5 18:56:44 24° WSW 18:58:20 31° WNW 19:02:14 10° N
Cosmos 1470 Rocket 4.2 18:59:52 39° WSW 19:00:50 47° WNW 19:05:03 10° N
Lacrosse 5 2.2 18:56:52 10° WSW 19:01:55 66° NNW 19:06:59 10° ENE
Cosmos 192 4.2 19:00:49 10° NNW 19:05:46 78° WSW 19:06:40 59° S
Cosmos 1666 3.7 19:06:11 36° W 19:06:42 38° WNW 19:10:19 10° N
CZ-4C R/B 2.9 18:59:43 10° NW 19:06:47 78° SW 19:10:56 32° SSE
Cosmos 1933 Rocket 3.8 19:05:59 51° SW 19:06:47 62° WNW 19:11:13 10° N
USA 267 3.2 19:04:21 10° ENE 19:10:51 62° SE 19:13:34 36° SSW
Timation 2 Rocket 3.9 19:09:34 38° SW 19:12:04 85° WNW 19:18:21 10° NNE
Cosmos 909 Rocket 4.3 19:09:04 30° SW 19:12:45 89° NW 19:20:59 10° NE
Cosmos 2251 Rocket 3.5 19:13:47 53° SSE 19:14:53 67° ESE 19:20:12 10° NNE
Cosmos 1943 3.7 19:10:27 10° NNW 19:16:05 55° NE 19:19:10 26° ESE
Cosmos 2344 4.4 19:14:42 28° SE 19:16:33 31° ESE 19:23:05 10° NE
Resurs 1-4 Rocket 4.4 19:14:49 10° ENE 19:16:55 12° E 19:19:00 10° ESE
NOSS 3-4 (A) 4.4 19:11:11 10° NW 19:17:45 53° NE 19:25:06 10° ESE
NOSS 3-4 (C) 4.5 19:11:18 10° NW 19:17:51 53° NE 19:25:12 10° ESE
Cosmos 1340 Rocket 3.5 19:17:31 40° W 19:18:00 42° WNW 19:21:48 10° N
Cosmos 1743 3.0 19:18:28 56° E 19:18:28 56° E 19:22:03 10° NNE
ATLAS 2AS CENTAUR R/B 4.0 19:19:31 10° NW 19:26:39 42° NNE 19:33:17 10° E
Cosmos 2219 4.0 19:24:31 22° WSW 19:27:58 49° NW 19:33:34 10° NNE
Cosmos 2242 Rocket 4.5 19:25:07 10° NNW 19:29:10 36° W 19:29:37 35° WSW
NOSS 3-3 (A) 4.2 19:28:05 42° SSE 19:29:16 48° ESE 19:35:32 10° NE
NOSS 3-3 (C) 4.2 19:28:12 42° SSE 19:29:22 47° ESE 19:35:37 10° NE
ATLAS CENTAUR R/B 2.1 19:32:39 37° E 19:32:39 37° E 19:35:45 10° NE
Cosmos 407 Rocket 4.0 19:34:07 41° SE 19:35:04 46° ESE 19:40:02 10° NE
Cosmos 1544 3.5 19:35:45 51° WNW 19:35:45 51° WNW 19:39:10 10° N
EO 1 Del DPAF 4.3 19:33:14 10° NNE 19:36:31 33° E 19:36:31 33° E
SAR-Lupe-2 3.6 19:34:02 10° NNE 19:37:29 74° NW 19:37:29 74° NW
Cosmos 2082 3.8 19:37:30 39° SW 19:39:43 74° WNW 19:45:29 10° NNE
USA 290 4.1 19:37:31 10° N 19:40:19 25° NE 19:41:01 23° ENE
Cosmos 2181 Rocket 4.1 19:34:51 10° NNW 19:41:06 65° W 19:43:09 42° SSW
Meteor 1-11 Rocket 3.9 19:40:21 40° SW 19:42:10 60° WNW 19:47:40 10° N
USA 234 3.2 19:43:27 32° SSE 19:46:31 61° SW 19:53:01 10° WNW
SL-16 R/B 3.6 19:45:24 13° SE 19:50:26 39° ENE 19:56:08 10° N
ADEOS Rocket 4.3 19:46:38 10° ESE 19:51:20 30° ENE 19:56:13 10° N
Cosmos 2297 Rocket 3.8 19:49:40 11° WSW 19:54:25 31° NW 19:59:26 10° NNE
Geosat 3.9 19:52:44 42° SE 19:54:31 87° ENE 19:59:35 10° NNW
Cosmos 1733 Rocket 3.1 19:55:34 59° SSE 19:56:15 70° E 20:00:41 10° NNE
Cosmos 1707 3.6 19:53:18 10° N 19:56:57 41° ENE 19:57:41 37° ESE
Cosmos 1140 Rocket 3.6 19:56:10 48° SSE 19:57:24 64° ESE 20:02:35 10° NNE
Cosmos 1975 3.2 20:00:50 51° ESE 20:01:16 54° E 20:05:15 10° NNE
Meteor 2-12 Rocket 4.4 20:01:14 42° S 20:03:29 87° E 20:09:42 10° N
Nadezhda 3 Rocket 4.1 19:57:30 10° N 20:03:54 78° E 20:06:47 35° SSE
Cosmos 614 Rocket 4.4 20:04:01 37° WSW 20:05:52 57° WNW 20:11:04 10° NNE
Cosmos 2221 Rocket 3.7 20:01:38 10° NNW 20:06:09 61° W 20:06:47 54° SW
Cosmos 2227 Rocket 3.7 20:03:03 13° WSW 20:07:21 31° NW 20:12:24 10° NNE
BREEZE-M R/B 3.1 20:06:11 15° W 20:09:14 72° S 20:18:58 10° ESE
SL-24 R/B - RUBIN 2 4.0 20:06:08 10° NW 20:11:00 48° WSW 20:11:07 48° SW
Cosmos 2263 Rocket 2.1 20:10:07 45° SSW 20:11:58 82° ESE 20:17:43 10° NNE
Cosmos 1603 3.7 20:10:39 10° NW 20:16:13 62° WSW 20:17:51 43° S
Cosmos 1626 4.4 20:13:43 10° NNE 20:16:32 20° ENE 20:18:43 13° ESE
Cosmos 1461 3.8 20:14:40 29° W 20:16:33 46° NW 20:20:46 10° NNE
Cosmos 1900 4.5 20:19:14 48° S 20:20:17 60° ESE 20:25:09 10° NE
Cosmos 468 Rocket 4.5 20:15:09 10° NNW 20:20:24 58° ENE 20:23:58 20° SE
Cosmos 1356 Rocket 3.4 20:21:36 58° SE 20:22:08 66° E 20:26:06 10° NNE
ARGOS Delta rocket 3.6 20:23:58 10° N 20:28:31 76° WNW 20:29:32 52° SSW
Meteor 2-9 Rocket 4.1 20:26:58 43° SSW 20:28:47 79° WNW 20:34:18 10° N
ASTEX 1 3.6 20:27:46 44° SW 20:28:56 55° W 20:33:48 10° NNW
Thor Agena Rocket 4.4 20:24:45 10° N 20:29:27 40° WNW 20:31:25 28° WSW
Okean 2 3.3 20:25:52 10° NNW 20:30:02 68° W 20:30:36 59° SW
SL-16 R/B 4.1 20:27:52 10° WNW 20:30:46 14° W 20:31:05 14° W
Cosmos 1842 4.1 20:30:12 10° NNW 20:33:43 35° W 20:33:43 35° W
CZ-2D R/B 2.8 20:29:58 10° NNE 20:35:15 49° E 20:37:46 29° SSE
YAOGAN 11 4.2 20:37:13 49° SSW 20:38:06 59° WSW 20:42:32 10° NNW
Cosmos 1190 Rocket 4.0 20:36:28 41° SW 20:38:23 79° WNW 20:43:44 10° NNE
MOZ.5/SAFIR/RUBIN 5/SL-8 3.8 20:40:33 45° SSW 20:41:46 63° WSW 20:46:26 10° NNW
Cosmos 2184 Rocket 4.4 20:39:15 32° SW 20:42:01 53° WNW 20:48:16 10° N
Cosmos 1782 Rocket 4.2 20:43:27 32° SSE 20:45:05 48° E 20:49:21 10° NNE
Cosmos 2227 4.2 20:42:42 35° SW 20:45:07 72° WNW 20:50:46 10° NNE
Lacrosse 5 3.1 20:40:41 10° WNW 20:45:31 42° N 20:50:21 10° ENE
NPP 4.2 20:41:10 10° NNE 20:46:25 49° E 20:49:08 27° SSE
Cosmos 1954 Rocket 4.0 20:44:45 40° SSW 20:46:45 82° ESE 20:52:04 10° NNE
Cosmos 841 Rocket 4.4 20:43:05 10° NNW 20:48:13 49° ENE 20:53:20 10° SE
SL-8 R/B 3.6 20:45:51 26° WSW 20:48:28 65° S 20:53:14 10° ESE
Cosmos 1340 2.5 20:46:43 10° NNW 20:50:29 87° ENE 20:51:18 53° SSE
Helios 1A 3.2 20:50:11 45° SW 20:50:49 50° W 20:54:56 10° NNW
Cosmos 2154 Rocket 4.1 20:48:33 33° SW 20:51:21 63° WNW 20:57:35 10° N
USA 267 3.6 20:47:28 10° ENE 20:53:58 67° NNW 21:00:27 10° W
Cosmos 1818 3.9 20:49:21 10° NW 20:54:36 46° WSW 20:56:12 36° SSW
Cosmos 1346 Rocket 4.5 20:51:12 10° N 20:54:41 30° ENE 20:58:06 10° SE
Cosmos 1238 Rocket 3.1 20:53:50 46° SW 20:54:45 60° WNW 20:59:23 10° N
CZ-4C R/B 4.1 20:49:07 10° WNW 20:54:47 24° WSW 20:56:04 23° SW
Cosmos 1674 Rocket 4.4 20:52:43 10° NNW 20:56:43 33° W 20:57:24 31° WSW
CZ-4 R/B 4.1 20:52:02 10° N 20:57:01 65° WNW 20:59:01 36° SW
Cosmos 1763 Rocket 3.4 20:51:42 10° NNW 20:57:02 78° WSW 20:59:56 27° SSE
Resurs 1-4 Rocket 2.2 20:52:22 10° NNE 20:57:41 74° ESE 21:00:11 32° S
Cosmos 1943 4.0 20:54:55 10° NW 20:59:52 31° WSW 21:00:56 29° SW
Cosmos 540 Rocket 3.7 20:55:18 10° NNW 21:00:30 69° ENE 21:05:24 11° SSE
SL-8 Rocket 4.1 20:59:30 26° S 21:03:05 72° E 21:09:15 10° NNE
NOSS 3-4 (A) 3.9 21:02:07 10° NW 21:08:52 55° SW 21:16:23 10° SSE
NOSS 3-4 (C) 3.9 21:02:13 10° NW 21:08:58 56° SW 21:16:30 10° SSE
ATLAS CENTAUR R/B 2.6 21:08:46 20° W 21:10:54 33° NW 21:14:42 10° NNE
KORONAS-FOTON 3.8 21:07:04 10° NNW 21:10:59 67° W 21:12:04 44° SSW
Cosmos 1025 Rocket 3.5 21:07:28 10° N 21:11:48 60° ENE 21:14:53 18° SSE
Cosmos 1674 2.7 21:08:30 10° NNW 21:12:20 65° W 21:13:18 45° SSW
Cosmos 2366 rocket 4.2 21:09:24 23° S 21:13:32 72° E 21:19:51 10° NNE
ADEOS II 2.7 21:09:20 10° NNE 21:14:28 52° E 21:17:51 21° S
USA 290 3.9 21:11:56 10° NW 21:13:43 22° WNW 21:13:43 22° WNW
Okean 2 Rocket 4.4 21:12:59 15° SSE 21:16:10 35° E 21:20:16 10° NNE
UNK 3.8 21:14:31 33° S 21:16:28 61° WSW 21:21:06 10° NNW
Cosmos 1733 3.8 21:15:03 28° SSE 21:16:44 51° E 21:20:27 10° NNE
ATLAS 2AS CENTAUR R/B 2.7 21:10:53 10° NW 21:18:17 81° SW 21:25:06 10° SE
X-37B 3.2 21:19:40 11° SE 21:19:40 11° SE 21:20:07 10° SE
Cosmos 1844 4.1 21:16:32 25° S 21:19:38 54° ESE 21:25:05 10° NE
Cosmos 1844 Rocket 2.9 21:17:20 27° S 21:20:25 66° ESE 21:26:03 10° NE
Cosmos 1975 Rocket 3.0 21:18:43 10° NNW 21:23:04 65° W 21:24:56 32° SSW
Cosmos 676 Rocket 4.4 21:21:23 27° SW 21:24:07 57° WNW 21:29:24 10° NNE
Cosmos 2344 3.7 21:24:41 20° WSW 21:30:10 71° NW 21:38:27 10° NE
USA 234 4.4 21:30:45 20° WSW 21:30:45 20° WSW 21:35:04 10° W
Cosmos 1707 4.4 21:29:47 10° NW 21:32:31 19° W 21:32:47 19° W
SL-16 R/B 2.9 21:30:30 24° SSW 21:33:58 47° W 21:39:57 10° NNW
DELTA 2 DEB (DPAF) 4.4 21:30:20 10° SSE 21:34:40 70° ENE 21:39:07 10° N
ADEOS Rocket 3.0 21:33:31 24° SSW 21:36:40 51° W 21:42:11 10° NNW
Cosmos 2278 Rocket 4.4 21:35:49 10° SE 21:39:37 19° E 21:43:25 10° ENE
Meteor 2-5 Rocket 3.9 21:34:15 10° N 21:40:10 77° ENE 21:45:55 10° SSE
Sich 1 Rocket 3.6 21:38:29 23° S 21:41:11 82° E 21:45:43 10° NNE
Meteor 1-29 3.3 21:38:25 10° NNE 21:41:43 58° ESE 21:43:27 25° S
IRS-1D 3.8 21:37:38 10° NNE 21:42:39 64° ESE 21:46:32 17° S
Cosmos 1805 3.2 21:41:25 30° SSW 21:43:13 69° WNW 21:47:09 10° N
IDEFIX/ARIANE 42P 3.1 21:38:51 10° NNE 21:43:57 54° E 21:48:24 13° S
Meteor 2-20 Rocket 4.5 21:42:38 10° NNW 21:48:45 66° W 21:54:01 14° S
AQUA 4.0 21:44:51 10° N 21:49:34 62° WNW 21:52:27 23° SW
Cosmos 1727 Rocket 4.0 21:43:32 10° NNW 21:49:48 76° W 21:55:58 11° S
Cosmos 44 Rocket 3.6 21:44:58 10° NW 21:49:53 46° WSW 21:54:38 10° SSE
Helios 1B rocket 2.6 21:46:04 10° N 21:50:08 60° WNW 21:52:22 25° SW
DNEPR-1 R/B 3.7 21:48:23 24° SW 21:51:26 84° SE 21:55:53 10° NE
Cosmos 1626 2.8 21:48:27 10° NNW 21:51:53 37° W 21:53:11 27° SW
Cosmos 1741 Rocket 4.0 21:49:36 23° SSW 21:53:01 79° WNW 21:58:22 10° NNE
MINOTAUR 4 R/B 4.2 21:53:27 24° S 21:55:23 54° W 21:58:55 10° NNW
Cosmos 1570 Rocket 4.0 21:50:07 10° NNW 21:55:30 82° WSW 22:00:51 10° SSE
Cosmos 2218 Rocket 4.2 21:51:43 20° SSW 21:56:06 60° WNW 22:02:18 10° N
Cosmos 2263 Rocket 3.8 21:51:52 10° W 21:56:35 26° NW 22:01:20 10° NNE
Cosmos 1400 Rocket 3.3 21:56:40 24° SW 21:58:38 45° WNW 22:02:31 10° N
FALCON 9 DEB 3.7 21:58:06 27° SSW 21:59:30 42° SSE 22:02:46 10° ENE
Meteor 1-22 Rocket 4.3 21:59:13 12° S 22:04:19 71° E 22:09:39 10° NNE
Cosmos 921 Rocket 3.1 21:59:55 10° NNW 22:04:28 88° ENE 22:08:59 10° SSE
Aureole 1 Rocket 4.5 22:01:19 15° SSW 22:07:00 80° ESE 22:15:12 10° NNE
BREEZE-M DEB (TANK) 4.4 22:09:38 14° S 22:09:38 14° S 22:10:22 10° SSE
CBERS-1 4.0 22:06:57 10° NNE 22:12:07 88° ESE 22:16:44 13° SSW
Meteor 1-28 Rocket 3.8 22:10:20 20° SSW 22:12:26 37° W 22:15:55 10° NNW
Meteor 2-10 4.3 22:07:42 11° S 22:12:48 75° E 22:18:20 10° NNE
Cosmos 1441 Rocket 3.7 22:10:44 10° N 22:14:40 65° ENE 22:18:37 10° SSE
CZ-2D R/B 3.2 22:10:21 10° N 22:15:08 32° WNW 22:19:04 14° WSW
COSMOS 2406 3.6 22:11:43 10° NNW 22:17:30 72° ENE 22:23:15 10° SE
Cosmos 1867 3.8 22:16:07 16° SW 22:20:29 68° NW 22:25:59 10° NE
FALCON 9 DEB 3.9 22:19:12 19° SSW 22:20:44 31° SSE 22:23:27 10° E
Cosmos 1315 Rocket 2.8 22:18:35 15° SSW 22:21:54 77° WNW 22:25:54 10° N
Cosmos 2123 Rocket 4.2 22:16:07 10° N 22:22:19 77° E 22:28:30 10° SSE
SL-14 R/B 4.3 22:21:50 10° NNW 22:25:15 28° W 22:27:42 16° SW
Landsat 4 3.9 22:22:57 10° N 22:26:35 55° WNW 22:29:31 15° SW
Cosmos 1821 Rocket 4.0 22:21:50 10° SSW 22:27:50 74° WNW 22:33:58 10° N
Cosmos 1470 2.7 22:24:14 11° S 22:27:59 89° E 22:31:53 10° N
Lacrosse 5 2.5 22:24:09 10° WNW 22:29:10 59° NNE 22:34:11 10° E
Meteor 1-24 Rocket 3.9 22:23:53 10° NNW 22:29:36 57° W 22:35:05 10° S
Iridium 51 4.2 22:26:33 13° SSW 22:29:46 63° W 22:33:41 10° N
Cosmos 841 Rocket 4.4 22:25:22 10° NW 22:29:53 30° W 22:34:24 10° SSW
Cosmos 1766 4.2 22:27:15 16° SW 22:29:55 34° WNW 22:33:34 10° N
SL-8 R/B 4.2 22:26:12 10° W 22:30:39 38° SSW 22:35:06 10° SE
Cosmos 1346 Rocket 3.8 22:27:38 10° NW 22:30:58 27° W 22:33:32 14° SW
Cosmos 1833 Rocket 2.7 22:29:52 10° NNW 22:35:32 82° WSW 22:41:09 10° SSE
USA 267 4.0 22:30:16 10° ENE 22:36:35 53° N 22:42:54 10° WNW
Resurs 1-4 Rocket 3.7 22:33:01 10° N 22:37:00 22° NW 22:40:58 10° WSW
CZ-4C R/B 3.8 22:33:40 10° S 22:37:54 50° W 22:42:14 10° NNW
Cosmos 1184 Rocket 3.6 22:36:34 10° NNW 22:39:26 30° W 22:42:06 11° SSW
Cosmos 1536 Rocket 4.2 22:35:47 10° NNW 22:39:51 37° W 22:43:55 10° SSW
ARIANE 5 R/B 2.7 22:38:36 10° NNE 22:43:51 79° ESE 22:49:05 10° SSW
Cosmos 1726 2.4 22:43:38 10° SSW 22:47:10 51° WNW 22:50:49 10° N
CZ-2C R/B 3.1 22:46:13 10° NNE 22:50:45 53° E 22:55:23 10° S
ATLAS CENTAUR R/B 3.9 22:48:40 10° NW 22:50:58 14° NNW 22:53:23 10° NNE
Cosmos 1607 4.3 22:44:47 10° SSW 22:51:12 72° SE 22:57:40 10° NE
Spot 1 4.3 22:47:45 10° S 22:51:37 42° W 22:55:36 10° NNW
ADEOS II 3.2 22:49:26 10° N 22:53:56 29° WNW 22:58:24 10° WSW
Okean 2 Rocket 4.2 22:50:22 10° SW 22:54:17 30° WNW 22:58:17 10° N
FALCON 9 DEB 3.4 22:51:41 11° SW 22:54:23 43° SSE 22:57:17 10° ENE
X-37B 1.9 22:51:56 11° SW 22:54:28 26° S 22:57:13 10° ESE
Cosmos 1953 3.3 22:52:48 10° S 22:56:41 49° E 23:00:35 10° NNE
Cosmos 2082 Rocket 2.4 22:52:09 10° NNW 22:57:55 80° ENE 23:03:39 10° SSE
IRS-P3 4.2 22:54:11 10° NNE 22:59:30 68° WNW 23:04:48 10° SSW
Cosmos 2084 3.6 22:57:02 10° NW 23:01:21 58° SW 23:05:47 10° SSE
Cosmos 1844 Rocket 3.9 22:59:47 10° WSW 23:04:46 30° NW 23:09:46 10° NNE
FALCON 9 DEB 3.1 23:02:46 10° SW 23:05:43 54° SSE 23:08:42 10° ENE
RESURS DK-1 2.6 23:03:04 10° NW 23:07:05 49° WSW 23:11:04 10° S
SL-08 R/B 3.7 23:03:16 10° S 23:08:03 48° W 23:12:48 10° NNW
ATLAS 2AS CENTAUR R/B 3.8 23:03:04 10° WNW 23:08:07 21° WSW 23:12:55 10° SSW
NOSS 2-1 (C) 4.1 23:04:23 10° NW 23:08:58 83° SW 23:15:30 10° SE
ATLAS 5 CENTAUR R/B 4.4 22:57:03 10° W 23:10:15 39° NNW 23:14:21 10° NE
CZ-4B R/B 3.4 23:07:01 10° NNE 23:11:49 75° WNW 23:16:32 10° SSW
